Voltar ao catálogo

STARLINK-31417

AtivoComunicaçõesVLEO
NORAD 59216·PAYLOAD·🇺🇸 United States

Lançado Mar 11, 2024 de Vandenberg Space Force Base

Loading…

Próximas Passagens (próximas 24 horas)

TLE

AtualizadoSource: CelesTrak SupGP

Época: Sep 15, 2026, 02:00 UTC

1 59216C 24046R   26258.08381944  .00059241  00000+0  17493-2 0  2583
2 59216  53.1585 354.7766 0001184  96.3199  83.7178 15.34378132    13

Acompanhe STARLINK-31417 em tempo real com AllMySat

Download on the App Store